TimeCST,TemperatureF,Dew PointF,Humidity,Sea Level PressureIn,VisibilityMPH,Wind Direction,Wind SpeedMPH,Gust SpeedMPH,PrecipitationIn,Events,Conditions,WindDirDegrees,DateUTC
12:53 AM,55.0,45.0,69,30.04,10.0,SE,10.4,-,N/A,,Clear,130,2012-11-18 06:53:00
1:53 AM,55.0,45.0,69,30.04,10.0,SE,5.8,-,N/A,,Clear,140,2012-11-18 07:53:00
2:53 AM,55.0,45.0,69,30.03,10.0,SE,5.8,-,N/A,,Clear,140,2012-11-18 08:53:00
3:53 AM,53.1,43.0,69,30.02,10.0,SE,5.8,-,N/A,,Clear,140,2012-11-18 09:53:00
4:53 AM,53.1,43.0,69,30.01,10.0,ESE,5.8,-,N/A,,Clear,110,2012-11-18 10:53:00
5:53 AM,53.1,43.0,69,30.02,10.0,SE,6.9,-,N/A,,Clear,130,2012-11-18 11:53:00
6:53 AM,53.1,44.1,71,30.03,10.0,SE,9.2,-,N/A,,Clear,130,2012-11-18 12:53:00
7:53 AM,54.0,44.1,69,30.04,10.0,SE,10.4,-,N/A,,Mostly Cloudy,130,2012-11-18 13:53:00
8:53 AM,53.1,46.9,80,30.08,10.0,Calm,Calm,-,0.00,,Overcast,0,2012-11-18 14:53:00
9:53 AM,55.0,48.0,77,30.08,10.0,ESE,6.9,-,0.00,,Overcast,120,2012-11-18 15:53:00
10:53 AM,57.0,48.0,72,30.10,10.0,SE,8.1,-,0.00,,Overcast,140,2012-11-18 16:53:00
11:53 AM,60.1,48.9,67,30.08,10.0,ESE,6.9,-,N/A,,Overcast,110,2012-11-18 17:53:00
12:53 PM,64.0,50.0,60,30.06,10.0,SSE,3.5,-,N/A,,Overcast,160,2012-11-18 18:53:00
1:53 PM,66.9,51.1,57,30.04,10.0,Variable,3.5,-,N/A,,Mostly Cloudy,0,2012-11-18 19:53:00
2:53 PM,66.9,51.1,57,30.04,10.0,NNW,8.1,-,N/A,,Mostly Cloudy,330,2012-11-18 20:53:00
3:53 PM,66.9,50.0,54,30.04,10.0,ENE,5.8,-,N/A,,Clear,70,2012-11-18 21:53:00
4:53 PM,66.9,50.0,54,30.04,10.0,ESE,4.6,-,N/A,,Mostly Cloudy,120,2012-11-18 22:53:00
5:53 PM,64.9,48.9,56,30.06,10.0,SE,5.8,-,N/A,,Mostly Cloudy,140,2012-11-18 23:53:00
6:53 PM,63.0,48.9,60,30.07,10.0,SSE,8.1,-,N/A,,Overcast,150,2012-11-19 00:53:00
7:53 PM,60.1,48.9,67,30.09,10.0,SE,9.2,-,N/A,,Clear,140,2012-11-19 01:53:00
8:53 PM,57.9,48.9,72,30.09,10.0,SSE,9.2,-,N/A,,Clear,150,2012-11-19 02:53:00
9:53 PM,57.0,50.0,77,30.11,10.0,SSE,5.8,-,N/A,,Clear,150,2012-11-19 03:53:00
10:53 PM,54.0,48.9,83,30.11,10.0,SE,5.8,-,N/A,,Clear,130,2012-11-19 04:53:00
11:53 PM,53.1,48.0,83,30.10,10.0,ESE,5.8,-,N/A,,Clear,110,2012-11-19 05:53:00